[[{"header":{"parameterUnit":"m.s-1","parameterCategory":1,"la1":30.2991,"la2":30.254,"lo1":-89.0895,"lo2":-89.0444,"dy":0.0017,"dx":0.0017,"nx":28,"ny":28,"refTime":"2024-09-28T21:00:00:Z","depth":0,"parameterNumber":2,"parameterNumberName":"U-component_of_WINDS"},"data":[0,0,0,0,0,0,0,0,0,0,0,0,0,0,0,0,0,0,0,0,0,0,0,0,0,0,0,0,0,0,0,0,0,0,0,0,0,0,0,0,0,0,0,0,0,0,0,0,0,0,0,0,0,0,0,0,0,0,1.4899,1.49,0,1.4982,1.4983,1.4984,1.5008,1.5007,1.5007,1.5006,1.5092,1.5095,1.5097,0,0,0,0,0,0,0,0,0,0,0,0,0,1.4763,1.4765,1.4899,1.49,1.4901,1.4982,1.4983,1.4984,1.5008,1.5007,1.5007,1.5006,1.5091,1.5094,1.5098,0,0,0,0,0,0,0,0,0,0,0,0,0,1.4831,1.4766,1.4899,1.4922,1.4925,1.4981,1.4983,1.4984,1.5008,1.5007,1.5006,1.5006,1.509,1.5094,1.5098,1.5136,0,0,1.511,1.5112,0,0,0,0,0,0,0,0,1.4828,1.4836,1.4918,1.4921,1.4924,1.4984,1.4966,1.5035,1.5008,1.4977,1.5006,1.5005,1.5057,1.5063,1.508,1.5141,1.5144,1.5111,1.5113,1.5115,1.5116,0,0,0,0,0,0,0,1.4823,1.4833,1.4932,1.4919,1.4923,1.493,1.4939,1.4979,1.5019,1.4979,1.4981,1.4991,1.5058,1.5076,1.5083,1.5145,1.5111,1.5114,1.5117,1.5118,1.5242,1.5243,0,0,0,0,0,0,1.4814,1.4829,1.4929,1.4934,1.4873,1.4933,1.4943,1.4965,1.5019,1.5026,1.4991,1.4991,1.507,1.5078,1.5086,1.5134,1.5115,1.5119,1.5121,1.5241,1.5242,1.5243,0,0,0,0,0,0,1.4811,1.4822,1.4926,1.4882,1.4896,1.4936,1.4961,1.4967,1.4985,1.5028,1.5035,1.5002,1.507,1.508,1.5124,1.5138,1.5121,1.5124,1.524,1.5242,1.5243,1.5232,0,0,0,0,0,0,1.4807,1.4821,1.4836,1.4882,1.4898,1.4962,1.4962,1.4969,1.4992,1.4993,1.504,1.5047,1.507,1.5118,1.5128,1.5143,1.5127,1.5239,1.5241,1.5243,1.5231,1.5232,1.5234,0,0,0,0,0,1.4802,1.4829,1.4836,1.4848,1.4917,1.4962,1.4971,1.4996,1.4993,1.5008,1.5036,1.5046,1.5135,1.5122,1.5134,1.515,1.5239,1.5241,1.5242,1.523,1.5232,1.5234,0,0,0,0,0,0,1.4783,1.4836,1.4844,1.4887,1.492,1.4966,1.4986,1.4997,1.5032,1.5032,1.5062,1.5072,1.5114,1.5137,1.5121,1.5191,1.5187,1.5191,1.5174,1.5176,1.5177,1.517,1.5131,0,0,0,0,0,1.4784,1.4816,1.4861,1.4895,1.4911,1.4946,1.4966,1.4983,1.5018,1.5032,1.5063,1.5097,1.5133,1.5156,1.5191,1.5235,1.5246,1.5252,1.5254,1.5254,1.5258,1.5283,1.5286,1.525,1.525,1.525,0,0,1.4786,1.4819,1.4837,1.4892,1.4919,1.4952,1.4957,1.4992,1.5017,1.5038,1.5081,1.5105,1.5145,1.5189,1.521,1.5209,1.527,1.5257,1.5257,1.526,1.5285,1.5289,1.5292,1.5251,1.5251,1.5251,0,0,1.4807,1.4835,1.4866,1.4894,1.4936,1.4959,1.4966,1.5011,1.5028,1.5072,1.5088,1.5119,1.518,1.5208,1.523,1.5264,1.5274,1.5274,1.5281,1.5305,1.5308,1.5311,1.5322,1.5326,1.5278,1.5278,1.5278,0,1.4804,1.4854,1.4881,1.4915,1.4939,1.496,1.4992,1.5018,1.5069,1.5085,1.5084,1.5161,1.519,1.5241,1.5249,1.5266,1.5276,1.5268,1.5305,1.5308,1.5311,1.5323,1.5327,1.5277,1.5277,1.5277,1.5277,0,1.4849,1.4884,1.4904,1.4953,1.4979,1.5012,1.5045,1.5068,1.5083,1.5107,1.5151,1.5187,1.523,1.5244,1.5258,1.5297,1.5295,1.5299,1.5296,1.5314,1.5325,1.533,1.5277,1.5277,1.5277,1.5277,0,0,1.4858,1.4923,1.493,1.4952,1.5001,1.5028,1.5063,1.5105,1.5124,1.516,1.5189,1.5241,1.5245,1.5271,1.5289,1.5311,1.5335,1.5312,1.5314,1.5315,1.538,1.5375,1.538,1.5343,1.5344,1.5344,1.5376,0,1.4885,1.4947,1.4972,1.5023,1.5055,1.5077,1.5107,1.514,1.5164,1.5195,1.5222,1.5258,1.5261,1.5276,1.5299,1.5327,1.5348,1.5325,1.5371,1.5372,1.5359,1.5386,1.5382,1.541,1.5381,1.5381,1.5382,0,1.4923,1.4958,1.5012,1.5057,1.5072,1.5098,1.5139,1.5169,1.5208,1.5224,1.5252,1.527,1.5308,1.5303,1.5356,1.534,1.5361,1.5378,1.5379,1.5384,1.5377,1.539,1.5419,1.5423,1.5389,1.5389,1.5388,0,1.4924,1.4985,1.5025,1.5044,1.5098,1.5116,1.5139,1.5177,1.5201,1.5237,1.5253,1.5294,1.5315,1.5347,1.5375,1.5369,1.5425,1.5423,1.5439,1.5439,1.5449,1.5448,1.5481,1.5464,1.5464,1.5464,1.5464,0,1.495,1.4982,1.5026,1.5051,1.5087,1.5117,1.5153,1.5178,1.5212,1.5242,1.5263,1.5291,1.5327,1.536,1.5383,1.5423,1.5433,1.5447,1.5453,1.5445,1.5443,1.5458,1.5456,1.5465,1.5465,1.5464,1.5464,0,1.4956,1.4988,1.5033,1.508,1.5093,1.5118,1.5159,1.5184,1.5209,1.5247,1.5258,1.5297,1.5337,1.5369,1.5421,1.5436,1.5478,1.5485,1.5465,1.5468,1.5482,1.548,1.5525,1.5532,1.5511,1.5511,1.5511,0,1.497,1.4995,1.5046,1.5068,1.5091,1.5125,1.515,1.5181,1.5206,1.5253,1.5272,1.5314,1.5348,1.5411,1.5445,1.5485,1.5492,1.5505,1.5498,1.549,1.5492,1.5489,1.5492,1.5505,1.5506,1.5506,1.5506,0,1.4992,1.5006,1.5041,1.5081,1.511,1.5143,1.5177,1.5194,1.5232,1.5259,1.5299,1.5326,1.538,1.5421,1.5465,1.5489,1.5504,1.5508,1.5514,1.5505,1.5493,1.5499,1.5466,1.5506,1.5506,1.5506,1.5506,1.5506,1.5002,1.5026,1.5065,1.5103,1.5132,1.5163,1.5189,1.5218,1.5253,1.5298,1.5315,1.5357,1.5396,1.5457,1.5482,1.5516,1.5517,1.5525,1.5527,1.5529,1.5528,1.5488,1.5524,1.5524,1.5524,1.5524,1.5524,0,1.5024,1.5051,1.5086,1.5133,1.5163,1.5174,1.5213,1.5237,1.5274,1.5309,1.5343,1.5391,1.5431,1.5468,1.551,1.553,1.5538,1.554,1.5538,1.5544,1.5525,1.5515,1.5533,1.5533,1.5533,1.5533,1.5533,1.5533,1.5039,1.5079,1.5099,1.5154,1.5181,1.5222,1.5243,1.5272,1.5301,1.5353,1.5386,1.541,1.5447,1.5492,1.5529,1.5539,1.5554,1.5554,1.5566,1.5547,1.5545,1.5544,1.5535,1.5557,1.5557,1.5582,1.5582,1.5583]},{"header":{"parameterUnit":"m.s-1","parameterCategory":1,"la1":30.2991,"la2":30.254,"lo1":-89.0895,"lo2":-89.0444,"dy":0.0017,"dx":0.0017,"nx":28,"ny":28,"refTime":"2024-09-28T21:00:00:Z","depth":0,"parameterNumber":3,"parameterNumberName":"V-component_of_WINDS"},"data":[0,0,0,0,0,0,0,0,0,0,0,0,0,0,0,0,0,0,0,0,0,0,0,0,0,0,0,0,0,0,0,0,0,0,0,0,0,0,0,0,0,0,0,0,0,0,0,0,0,0,0,0,0,0,0,0,0,0,3.3645,3.3644,0,3.3617,3.3616,3.3616,3.3615,3.3616,3.3616,3.3616,3.3582,3.3581,3.3579,0,0,0,0,0,0,0,0,0,0,0,0,0,3.3692,3.3691,3.3645,3.3644,3.3644,3.3617,3.3616,3.3616,3.3615,3.3616,3.3616,3.3616,3.3582,3.3581,3.3579,0,0,0,0,0,0,0,0,0,0,0,0,0,3.3669,3.3691,3.3645,3.3641,3.364,3.3617,3.3616,3.3616,3.3615,3.3616,3.3616,3.3617,3.3583,3.3581,3.3579,3.3556,0,0,3.3573,3.3572,0,0,0,0,0,0,0,0,3.367,3.3667,3.3642,3.3641,3.364,3.362,3.362,3.3596,3.3615,3.3624,3.3616,3.3617,3.3594,3.3591,3.3584,3.3555,3.3553,3.3573,3.3572,3.3571,3.3571,0,0,0,0,0,0,0,3.3672,3.3668,3.3633,3.3641,3.364,3.3638,3.3635,3.3616,3.3606,3.3624,3.3623,3.362,3.3593,3.3586,3.3583,3.3553,3.3573,3.3571,3.357,3.357,3.3502,3.3502,0,0,0,0,0,0,3.3675,3.3669,3.3634,3.3633,3.3657,3.3637,3.3634,3.3626,3.3606,3.3604,3.362,3.362,3.3589,3.3586,3.3582,3.3554,3.3571,3.3569,3.3568,3.3503,3.3502,3.3501,0,0,0,0,0,0,3.3676,3.3672,3.3635,3.3651,3.3646,3.3636,3.3627,3.3625,3.3618,3.3604,3.3601,3.3615,3.3589,3.3585,3.3563,3.3553,3.3568,3.3567,3.3504,3.3503,3.3502,3.3498,0,0,0,0,0,0,3.3677,3.3672,3.3665,3.3651,3.3645,3.3619,3.3626,3.3624,3.3615,3.3616,3.3598,3.3596,3.3589,3.3566,3.3561,3.355,3.3565,3.3504,3.3503,3.3502,3.3499,3.3497,3.3495,0,0,0,0,0,3.3679,3.3664,3.3665,3.366,3.3636,3.3618,3.3615,3.3609,3.3615,3.3606,3.3597,3.3596,3.3555,3.3564,3.3558,3.3547,3.3505,3.3503,3.3502,3.3499,3.3497,3.3495,0,0,0,0,0,0,3.3675,3.3662,3.3662,3.3643,3.3632,3.3618,3.3607,3.3607,3.3593,3.3594,3.3586,3.3582,3.356,3.3551,3.3561,3.3523,3.353,3.3528,3.353,3.3528,3.3526,3.3528,3.3564,0,0,0,0,0,3.3672,3.366,3.3649,3.3632,3.3627,3.3618,3.361,3.3607,3.3594,3.3589,3.3578,3.3564,3.3548,3.3537,3.3522,3.3497,3.3493,3.3487,3.3485,3.3484,3.3481,3.3466,3.3463,3.3496,3.3496,3.3496,0,0,3.3665,3.3657,3.3649,3.3631,3.3622,3.3608,3.3614,3.3599,3.3588,3.3586,3.3565,3.3557,3.354,3.3517,3.3506,3.3509,3.3471,3.3482,3.3481,3.3479,3.3464,3.3461,3.3459,3.3495,3.3496,3.3496,0,0,3.3646,3.3639,3.3624,3.3616,3.3603,3.3597,3.3593,3.358,3.3574,3.3554,3.3552,3.3537,3.351,3.3498,3.3489,3.3465,3.3463,3.346,3.345,3.3436,3.3433,3.3431,3.3421,3.3418,3.3457,3.3457,3.3457,0,3.3639,3.362,3.3616,3.3602,3.3593,3.3592,3.3576,3.3567,3.3549,3.3542,3.3546,3.3511,3.3501,3.3474,3.3468,3.3461,3.3455,3.3462,3.3434,3.3432,3.3429,3.342,3.3416,3.3457,3.3457,3.3457,3.3457,0,3.3611,3.3597,3.3587,3.3571,3.3561,3.3546,3.3538,3.3528,3.3526,3.3519,3.3497,3.3484,3.3466,3.3459,3.3456,3.3432,3.3434,3.3436,3.3443,3.3426,3.3417,3.3413,3.3457,3.3457,3.3457,3.3457,0,0,3.3588,3.3571,3.3567,3.356,3.3545,3.3534,3.3517,3.3501,3.3492,3.3479,3.3464,3.3441,3.3443,3.3432,3.3428,3.3415,3.3396,3.3419,3.3418,3.3414,3.3367,3.3365,3.3361,3.3395,3.3394,3.3394,3.3368,0,3.3567,3.354,3.3536,3.3512,3.3499,3.3498,3.3483,3.3472,3.3465,3.3451,3.3442,3.3426,3.343,3.3423,3.3411,3.3401,3.3386,3.3403,3.3379,3.3378,3.3383,3.3356,3.3354,3.3331,3.3364,3.3364,3.3363,0,3.3538,3.3526,3.3501,3.3488,3.3482,3.347,3.3454,3.3442,3.3428,3.3423,3.3411,3.3408,3.3389,3.3397,3.337,3.3381,3.3371,3.3364,3.3363,3.336,3.3369,3.3352,3.3323,3.3319,3.3358,3.3358,3.3359,0,3.3523,3.3501,3.3483,3.3476,3.3461,3.3452,3.3445,3.3432,3.3422,3.3407,3.3401,3.3383,3.3374,3.3359,3.3351,3.3358,3.3323,3.3331,3.3318,3.3318,3.331,3.331,3.3278,3.3305,3.3305,3.3305,3.3305,0,3.3499,3.3483,3.3476,3.3465,3.3446,3.3442,3.3423,3.3416,3.3404,3.339,3.3387,3.3373,3.3364,3.3348,3.3341,3.3318,3.3314,3.3308,3.3306,3.3308,3.3309,3.3301,3.3302,3.3304,3.3304,3.3304,3.3304,0,3.3479,3.3473,3.3454,3.3441,3.3437,3.3424,3.3413,3.3401,3.3394,3.3376,3.3371,3.336,3.3341,3.3331,3.3307,3.3302,3.3277,3.3276,3.3282,3.3281,3.3268,3.327,3.323,3.3224,3.3255,3.3254,3.3254,0,3.3464,3.3452,3.3439,3.343,3.3423,3.3409,3.3399,3.3393,3.3383,3.3366,3.3356,3.3337,3.3322,3.3292,3.328,3.3261,3.326,3.3247,3.3257,3.3259,3.3258,3.3259,3.3257,3.3245,3.3245,3.3245,3.3244,0,3.3437,3.3435,3.3423,3.3409,3.3398,3.3386,3.3374,3.3366,3.3358,3.3346,3.3329,3.3317,3.3293,3.3274,3.3255,3.3245,3.3242,3.3242,3.3237,3.3239,3.3242,3.3239,3.3277,3.3242,3.3242,3.3243,3.3243,3.3243,3.3418,3.3408,3.3397,3.3382,3.3373,3.3362,3.3351,3.3343,3.3328,3.331,3.3307,3.3287,3.3272,3.3246,3.3235,3.3218,3.3221,3.3215,3.3213,3.3212,3.3211,3.3246,3.3215,3.3215,3.3215,3.3215,3.3215,0,3.3391,3.3384,3.3371,3.3356,3.3344,3.3345,3.3332,3.3321,3.3305,3.3292,3.3278,3.3256,3.3238,3.3225,3.3205,3.3194,3.3192,3.3189,3.3189,3.3187,3.321,3.3215,3.3191,3.3191,3.3191,3.3191,3.3191,3.3191,3.3375,3.3357,3.3354,3.333,3.3323,3.3305,3.3298,3.3287,3.3277,3.3253,3.3239,3.3231,3.3217,3.3197,3.3179,3.3176,3.3168,3.3165,3.3161,3.3183,3.3185,3.3188,3.3193,3.3163,3.3163,3.3139,3.3139,3.3138]}]]